Home   Weather   Schwerin   Past weeks
Flag for Germany

Past Weather in Schwerin, Mecklenburg-Western Pomerania, Germany — Yesterday and Last 2 Weeks

Now
55 °F

Passing clouds.


Feels Like: 52 °F
Forecast: 74 / 53 °F
Wind: 12 mph from Northwest

Location: Laage

Current Time: Jul 17, 2019 at 3:12:34 am

Latest Report: Jul 17, 2019 at 2:20 am


Visibility: N/A

Pressure: 29.95 "Hg

Humidity: 94%

Dew Point: 54 °F

Location of SchwerinLocation

Past Weather in Schwerin — Graph

°F

Schwerin Temperature Yesterday

Maximum temperature yesterday: 66 °F (at 1:20 pm)
Minimum temperature yesterday: 57 °F (at 1:06 am)
Average temperature yesterday: 61 °F

High & Low Weather Summary for the Past Weeks

 TemperatureHumidityPressure
High77 °F (Jul 13, 2:20 pm)94% (Jul 3, 10:20 am)30.18 "Hg (Jul 3, 10:20 am)
Low48 °F (Jul 3, 5:20 am)34% (Jul 13, 3:20 pm)29.68 "Hg (Jul 6, 3:20 pm)
Average60 °F74%29.94 "Hg
* Reported Jul 2 1:20 am — Jul 17 1:20 am, Schwerin. Weather by CustomWeather, © 2019

Note: Actual official high and low records may vary slightly from our data, if they occured in-between our weather recording intervals... More about our weather records

Advertising

Schwerin Weather History for the Previous 24 Hours

Scroll right to see more
 ConditionsComfort  
Time TempWeatherWind HumidityBarometerVisibility
1:20 am
Wed, Jul 17
55 °FPassing clouds.10 mph94%29.95 "HgN/A
12:20 am59 °FPassing clouds.9 mph82%29.95 "HgN/A
11:20 pm
Tue, Jul 16
61 °FPassing clouds.9 mph77%29.95 "HgN/A
10:20 pm61 °FPassing clouds.9 mph77%29.95 "HgN/A
9:20 pm63 °FScattered clouds.9 mph73%29.92 "HgN/A
8:20 pm66 °FScattered clouds.10 mph64%29.92 "HgN/A
7:20 pm66 °FScattered clouds.15 mph60%29.92 "HgN/A
6:20 pm66 °FPartly sunny.14 mph60%29.92 "HgN/A
5:33 pm66 °FBroken clouds.14 mph60%29.89 "HgN/A
3:20 pm64 °FBroken clouds.17 mph64%29.89 "HgN/A
1:20 pm66 °FBroken clouds.17 mph60%29.89 "HgN/A
12:20 pm64 °FPartly sunny.16 mph60%29.89 "HgN/A
11:50 am63 °FBroken clouds.18 mph68%29.89 "HgN/A
11:20 am61 °FPartly sunny.16 mph72%29.92 "HgN/A
10:50 am61 °FPartly sunny.15 mph77%29.92 "HgN/A
10:20 am59 °FPartly sunny.12 mph77%29.92 "HgN/A
10:00 am59 °FBroken clouds.13 mph77%29.92 "HgN/A
9:20 am57 °FDrizzle. Broken clouds.14 mph88%29.92 "HgN/A
8:20 am57 °FLow clouds.12 mph88%29.92 "HgN/A
7:20 am57 °FLow clouds.12 mph88%29.92 "HgN/A
6:58 am57 °FDrizzle. Low clouds.14 mph88%29.92 "Hg4 mi
6:20 am57 °FLow clouds.13 mph88%29.89 "HgN/A
5:20 am57 °FOvercast.13 mph82%29.89 "HgN/A
4:20 am57 °FPassing clouds.14 mph82%29.92 "HgN/A
3:20 am59 °FPassing clouds.10 mph82%29.92 "HgN/A
Weather by CustomWeather, © 2019

See weather overview